Location: Newark
(43.4306°N, 0.3089°E)
Time: 12:58:22
(UTC+00:00)

Vanguard 3 - Pass Details

Date: 02 September 2019
Orbit: 508 x 3262 km, 33.3° (Epoch: 23 October)

Event Time Altitude Azimuth Distance (km) Brightness Sun altitude
Rises 18:15:04 0° 271° (W) 5,123 13.9 2.4°
Reaches altitude 10° 18:19:53 10° 259° (W) 3,583 12.0 1.5°
Maximum altitude 18:26:02 22° 213° (SSW) 2,106 9.6 0.4°
Drops below altitude 10° 18:30:20 10° 163° (SSE) 2,385 9.3 -0.4°
Sets 18:32:49 0° 146° (SE) 3,059 9.7 -0.8°
